Date,TemperatureHighF,TemperatureAvgF,TemperatureLowF,DewpointHighF,DewpointAvgF,DewpointLowF,HumidityHigh,HumidityAvg,HumidityLow,PressureMaxIn,PressureMinIn,WindSpeedMaxMPH,WindSpeedAvgMPH,GustSpeedMaxMPH,PrecipitationSumIn
2013-2-1,28,21,13,16,10,4,70,62,48,30.57,30.35,18,3,18,0.00
2013-2-2,41,34,24,32,24,16,85,68,53,30.36,30.11,17,3,17,0.00
2013-2-3,43,36,28,32,27,21,86,70,45,30.19,30.02,23,3,23,0.00
2013-2-4,50,40,28,41,33,23,91,77,44,30.13,29.90,17,3,17,0.04
2013-2-5,55,43,37,42,38,35,95,83,53,30.10,29.94,13,2,13,0.00
2013-2-6,53,42,29,38,32,27,96,71,44,30.28,30.10,10,2,10,0.00
2013-2-7,66,48,36,51,37,30,84,67,53,30.11,29.91,14,2,14,0.00
2013-2-8,44,39,33,38,32,28,88,79,66,30.39,30.09,17,5,17,0.03
2013-2-9,50,40,32,34,30,27,83,69,50,30.41,30.07,13,3,13,0.00
2013-2-10,56,53,47,54,45,32,93,77,55,30.07,29.73,30,6,30,0.37
2013-2-11,55,46,35,53,33,29,93,61,43,30.17,29.87,15,4,15,0.00
2013-2-12,49,41,27,34,31,26,96,70,49,30.18,29.88,11,1,11,0.00
2013-2-13,46,40,37,38,36,34,94,86,66,29.97,29.83,15,3,15,0.19
2013-2-14,59,46,36,42,38,34,93,75,50,30.04,29.94,15,3,15,0.00
2013-2-15,46,39,28,35,28,16,91,65,36,30.25,30.04,16,2,16,0.00
2013-2-16,37,29,22,21,16,8,87,60,31,30.25,30.19,16,2,16,0.00
2013-2-17,48,34,18,27,20,12,87,58,37,30.28,30.08,12,2,12,0.00
2013-2-18,61,49,39,48,38,24,93,68,34,30.09,29.72,26,7,31,0.88
2013-2-19,44,38,29,39,22,12,84,56,33,30.31,29.87,24,7,24,0.00
2013-2-20,33,28,24,19,16,13,75,63,49,30.41,30.29,12,2,12,0.00
2013-2-21,38,31,25,37,25,18,95,78,54,30.32,29.84,20,4,20,1.07
2013-2-22,43,39,34,40,36,28,97,87,78,30.08,29.83,14,4,14,0.01
2013-2-23,45,35,26,30,26,23,88,72,50,30.09,29.98,10,1,10,0.00
2013-2-24,52,37,22,29,26,21,95,67,39,30.17,30.02,12,2,12,0.00
2013-2-25,59,47,34,41,30,26,85,54,30,30.05,29.47,21,5,21,0.17
2013-2-26,50,44,38,48,41,34,96,87,77,29.69,29.35,22,5,22,0.64
2013-2-27,39,37,34,35,32,29,90,82,68,29.92,29.69,17,6,17,0.03
2013-2-28,38,35,33,32,30,27,93,81,72,30.10,29.91,13,4,13,0.00